TimeCDT,TemperatureF,Dew PointF,Humidity,Sea Level PressureIn,VisibilityMPH,Wind Direction,Wind SpeedMPH,Gust SpeedMPH,PrecipitationIn,Events,Conditions,WindDirDegrees,DateUTC
12:15 AM,28.4,26.6,93,29.61,3.0,SE,25.3,28.8,N/A,Snow,Light Snow,140,2013-03-18 05:15:00
12:34 AM,28.4,26.6,93,29.59,1.8,SE,26.5,34.5,N/A,,Overcast,140,2013-03-18 05:34:00
12:55 AM,28.4,26.6,93,29.58,2.5,SE,27.6,-,N/A,,Overcast,140,2013-03-18 05:55:00
1:15 AM,28.4,28.4,100,29.56,2.5,SE,25.3,-,N/A,,Overcast,140,2013-03-18 06:15:00
1:34 AM,28.4,28.4,100,29.55,2.5,SE,27.6,-,N/A,,Overcast,140,2013-03-18 06:34:00
1:55 AM,28.4,28.4,100,29.54,2.5,SE,26.5,31.1,N/A,,Overcast,140,2013-03-18 06:55:00
2:14 AM,30.2,28.4,93,29.53,2.0,SE,25.3,31.1,N/A,,Overcast,140,2013-03-18 07:14:00
2:34 AM,30.2,28.4,93,29.52,2.5,SE,25.3,-,N/A,,Overcast,140,2013-03-18 07:34:00
2:54 AM,30.2,28.4,93,29.50,3.0,SE,24.2,-,N/A,Snow,Light Snow,140,2013-03-18 07:54:00
3:14 AM,30.2,30.2,100,29.48,3.0,SE,24.2,29.9,N/A,,Overcast,140,2013-03-18 08:14:00
3:34 AM,30.2,30.2,100,29.47,3.0,SE,21.9,-,N/A,Snow,Light Snow,140,2013-03-18 08:34:00
3:54 AM,32.0,30.2,93,29.46,5.0,SE,20.7,-,N/A,,Overcast,140,2013-03-18 08:54:00
4:14 AM,33.8,32.0,93,29.44,10.0,South,17.3,23.0,N/A,,Overcast,180,2013-03-18 09:14:00
4:34 AM,33.8,32.0,93,29.44,10.0,West,24.2,32.2,N/A,,Overcast,260,2013-03-18 09:34:00
4:54 AM,26.6,24.8,93,29.47,5.0,West,32.2,42.6,N/A,,Overcast,270,2013-03-18 09:54:00
5:14 AM,26.6,24.8,93,29.50,3.0,West,21.9,32.2,N/A,,Overcast,260,2013-03-18 10:14:00
5:34 AM,24.8,21.2,86,29.51,3.0,West,21.9,41.4,N/A,Snow,Light Snow,260,2013-03-18 10:34:00
5:54 AM,21.2,19.4,93,29.54,7.0,West,20.7,29.9,N/A,,Overcast,260,2013-03-18 10:54:00
6:14 AM,21.2,17.6,86,29.55,3.0,West,25.3,32.2,N/A,,Overcast,270,2013-03-18 11:14:00
6:34 AM,17.6,15.8,93,29.58,3.0,West,23.0,36.8,N/A,Snow,Light Snow,270,2013-03-18 11:34:00
6:54 AM,15.8,12.2,86,29.59,4.0,West,21.9,35.7,N/A,Snow,Light Snow,270,2013-03-18 11:54:00
7:15 AM,15.8,12.2,86,29.60,5.0,West,23.0,36.8,N/A,Snow,Light Snow,270,2013-03-18 12:15:00
7:34 AM,15.8,10.4,79,29.61,4.0,West,27.6,40.3,N/A,Snow,Light Snow,270,2013-03-18 12:34:00
7:54 AM,14.0,10.4,86,29.60,3.0,West,31.1,42.6,N/A,Snow,Light Snow,270,2013-03-18 12:54:00
8:14 AM,12.2,8.6,85,29.62,4.0,West,25.3,38.0,N/A,Snow,Light Snow,270,2013-03-18 13:14:00
8:34 AM,12.2,8.6,85,29.63,5.0,West,24.2,35.7,N/A,,Mostly Cloudy,270,2013-03-18 13:34:00
8:55 AM,12.2,8.6,85,29.63,4.0,West,26.5,40.3,N/A,,Haze,270,2013-03-18 13:55:00
9:15 AM,12.2,8.6,85,29.64,4.0,West,29.9,36.8,N/A,,Overcast,270,2013-03-18 14:15:00
9:35 AM,12.2,8.6,85,29.65,3.0,West,29.9,39.1,N/A,,Mostly Cloudy,280,2013-03-18 14:35:00
9:54 AM,12.2,6.8,79,29.65,3.0,West,33.4,39.1,N/A,Snow,Light Snow,270,2013-03-18 14:54:00
10:15 AM,12.2,8.6,85,29.67,2.0,West,29.9,42.6,N/A,Snow,Light Snow,280,2013-03-18 15:15:00
10:34 AM,12.2,8.6,85,29.67,1.8,West,32.2,41.4,N/A,,Overcast,280,2013-03-18 15:34:00
10:54 AM,12.2,8.6,85,29.69,1.5,West,32.2,41.4,N/A,Snow,Light Snow,280,2013-03-18 15:54:00
11:14 AM,12.2,8.6,85,29.69,2.0,West,31.1,40.3,N/A,Snow,Light Snow,280,2013-03-18 16:14:00
11:34 AM,12.2,8.6,85,29.70,2.0,West,29.9,39.1,N/A,,Haze,280,2013-03-18 16:34:00
11:54 AM,12.2,8.6,85,29.71,1.8,WNW,28.8,40.3,N/A,,Overcast,290,2013-03-18 16:54:00
12:15 PM,12.2,8.6,85,29.72,1.0,West,32.2,41.4,N/A,Snow,Light Snow,280,2013-03-18 17:15:00
12:34 PM,14.0,8.6,79,29.73,1.8,West,25.3,39.1,N/A,,Haze,280,2013-03-18 17:34:00
12:54 PM,12.2,8.6,85,29.73,1.0,WNW,31.1,40.3,N/A,Snow,Light Snow,290,2013-03-18 17:54:00
1:14 PM,14.0,8.6,79,29.74,1.5,WNW,32.2,41.4,N/A,Snow,Light Snow,290,2013-03-18 18:14:00
1:34 PM,12.2,8.6,85,29.76,1.0,West,25.3,39.1,N/A,Snow,Light Snow,280,2013-03-18 18:34:00
1:54 PM,14.0,8.6,79,29.76,1.5,WNW,27.6,40.3,N/A,Snow,Light Snow,290,2013-03-18 18:54:00
2:15 PM,14.0,8.6,79,29.77,1.5,WNW,29.9,39.1,N/A,Snow,Light Snow,290,2013-03-18 19:15:00
2:34 PM,14.0,8.6,79,29.77,1.2,WNW,28.8,39.1,N/A,Snow,Light Snow,290,2013-03-18 19:34:00
2:54 PM,14.0,10.4,86,29.78,0.8,WNW,24.2,33.4,N/A,Snow,Light Snow,290,2013-03-18 19:54:00
3:14 PM,14.0,10.4,86,29.78,0.8,WNW,24.2,32.2,N/A,Snow,Light Snow,290,2013-03-18 20:14:00
3:34 PM,14.0,10.4,86,29.79,1.8,WNW,27.6,39.1,N/A,Snow,Light Snow,290,2013-03-18 20:34:00
3:54 PM,14.0,10.4,86,29.80,1.0,West,27.6,36.8,N/A,Snow,Light Snow,280,2013-03-18 20:54:00
4:14 PM,14.0,10.4,86,29.81,1.0,WNW,21.9,35.7,N/A,Snow,Light Snow,290,2013-03-18 21:14:00
4:35 PM,14.0,10.4,86,29.82,1.5,WNW,21.9,32.2,N/A,Snow,Light Snow,290,2013-03-18 21:35:00
4:54 PM,14.0,10.4,86,29.83,1.2,WNW,25.3,32.2,N/A,Snow,Light Snow,290,2013-03-18 21:54:00
5:14 PM,12.2,8.6,85,29.83,1.5,WNW,27.6,33.4,N/A,Snow,Light Snow,290,2013-03-18 22:14:00
5:34 PM,14.0,8.6,79,29.84,1.5,WNW,27.6,36.8,N/A,Snow,Light Snow,300,2013-03-18 22:34:00
5:54 PM,14.0,8.6,79,29.85,1.8,WNW,23.0,33.4,N/A,Snow,Light Snow,300,2013-03-18 22:54:00
6:14 PM,12.2,8.6,85,29.86,2.0,WNW,21.9,33.4,N/A,Snow,Light Snow,300,2013-03-18 23:14:00
6:34 PM,12.2,8.6,85,29.88,4.0,WNW,21.9,26.5,N/A,Snow,Light Snow,290,2013-03-18 23:34:00
6:54 PM,12.2,8.6,85,29.89,4.0,WNW,23.0,31.1,N/A,Snow,Light Snow,290,2013-03-18 23:54:00
7:15 PM,12.2,6.8,79,29.90,10.0,WNW,23.0,28.8,N/A,,Mostly Cloudy,290,2013-03-19 00:15:00
7:35 PM,10.4,6.8,85,29.91,10.0,WNW,17.3,23.0,N/A,,Clear,290,2013-03-19 00:35:00
7:54 PM,10.4,6.8,85,29.92,10.0,WNW,20.7,29.9,N/A,,Clear,300,2013-03-19 00:54:00
8:14 PM,10.4,5.0,79,29.93,10.0,WNW,23.0,31.1,N/A,,Scattered Clouds,300,2013-03-19 01:14:00
8:34 PM,10.4,3.2,73,29.94,10.0,WNW,20.7,29.9,N/A,,Clear,290,2013-03-19 01:34:00
8:54 PM,10.4,3.2,73,29.94,10.0,WNW,23.0,27.6,N/A,,Clear,290,2013-03-19 01:54:00
9:14 PM,10.4,3.2,73,29.95,10.0,WNW,21.9,28.8,N/A,,Clear,290,2013-03-19 02:14:00
9:34 PM,8.6,3.2,79,29.96,10.0,WNW,19.6,26.5,N/A,,Clear,290,2013-03-19 02:34:00
9:55 PM,8.6,3.2,79,29.97,10.0,West,15.0,-,N/A,,Clear,280,2013-03-19 02:55:00
10:15 PM,8.6,1.4,73,29.98,10.0,West,17.3,-,N/A,,Clear,280,2013-03-19 03:15:00
10:34 PM,8.6,3.2,79,29.98,10.0,West,16.1,-,N/A,,Clear,280,2013-03-19 03:34:00
10:54 PM,8.6,1.4,73,29.99,10.0,West,15.0,23.0,N/A,,Clear,280,2013-03-19 03:54:00
11:15 PM,6.8,1.4,79,29.99,10.0,WNW,18.4,-,N/A,,Clear,290,2013-03-19 04:15:00
11:34 PM,6.8,1.4,79,29.99,10.0,WNW,15.0,23.0,N/A,,Clear,290,2013-03-19 04:34:00